Ludington, MI

10:14 PM EST on November 17, 2019 (GMT -0500)
Mason County

Weather History for KLDM - June, 2019

Change the Weather History Date:

Friday, June 14, 2019

  Actual Average Record
Temperature  
Mean Temperature 55 °F -  
Max Temperature 63 °F 76 °F 92 °F (1988)
Min Temperature 47 °F 54 °F 31 °F (1978)
Degree Days  
Heating Degree Days 10    
Growing Degree Days 5 (Base 50)    
Moisture  
Dew Point 46 °F    
Average Humidity 73    
Maximum Humidity 94    
Minimum Humidity 47    
Precipitation  
Precipitation 0.36 in - - ()
Sea Level Pressure  
Sea Level Pressure 29.89 in    
Wind  
Wind Speed 6 mph (SW)    
Max Wind Speed 20 mph    
Max Gust Speed 31 mph    
Visibility 9 miles    
Events Rain    
Averages and records for this station are not official NWS values.
T = Trace of Precipitation, MM = Missing Value Source: NWS Daily Summary

Daily Weather History Graph

Daily Weather History Graph

Search for Another Location

Airport or City:

Astronomy

Jun. 14, 2019 Rise Set
Actual Time 6:02 AM EDT 9:29 PM EDT
Civil Twilight 5:26 AM EDT 10:05 PM EDT
Nautical Twilight 4:38 AM EDT 10:53 PM EDT
Astronomical Twilight 3:38 AM EDT 11:53 PM EDT
Moon 6:45 PM EDT (6/14) 4:27 AM EDT (6/14)
Length of Visible Light 16h 39m
Length of Day
15h 27m
Waxing Gibbous, 92% of the Moon is Illuminated
Jun 14
Waxing Gibbous
Jun 17
Full
Jun 25
Last Quarter
Jul 2
New
Jul 9
First Quarter

Hourly Weather History & Observations

Time (EDT) Temp. Dew Point Humidity Pressure Visibility Wind Dir Wind Speed Gust Speed Precip Events Conditions
12:16 AM 48.0 °F 39.6 °F 73% 29.94 in 10.0 mi West 3.5 mph - N/A   Clear
12:35 AM 48.2 °F 39.4 °F 72% 29.94 in 10.0 mi West 4.6 mph - N/A   Clear
12:36 AM 48.2 °F 39.4 °F 72% 29.94 in 10.0 mi West 4.6 mph - N/A   Clear
12:55 AM 47.7 °F 39.6 °F 73% 29.94 in 10.0 mi West 3.5 mph - N/A   Clear
1:19 AM 48.4 °F 40.3 °F 74% 29.93 in 10.0 mi WSW 6.9 mph - N/A   Clear
1:36 AM 49.1 °F 40.3 °F 72% 29.93 in 10.0 mi WSW 5.8 mph - N/A   Clear
1:55 AM 49.5 °F 40.3 °F 71% 29.93 in 10.0 mi West 5.8 mph - N/A   Clear
1:56 AM 49.5 °F 40.1 °F 70% 29.93 in 10.0 mi WSW 6.9 mph - N/A   Clear
2:15 AM 49.1 °F 39.6 °F 70% 29.92 in 10.0 mi WSW 5.8 mph - N/A   Clear
2:16 AM 49.1 °F 39.6 °F 70% 29.92 in 10.0 mi WSW 4.6 mph - N/A   Clear
2:35 AM 49.6 °F 39.2 °F 67% 29.92 in 10.0 mi West 3.5 mph - N/A   Clear
2:40 AM 50.0 °F 39.2 °F 66% 29.92 in 10.0 mi WSW 4.6 mph - N/A   Clear
2:58 AM 50.0 °F 40.1 °F 69% 29.92 in 10.0 mi WSW 4.6 mph - N/A   Clear
3:16 AM 50.2 °F 41.2 °F 71% 29.92 in 10.0 mi WSW 5.8 mph - N/A   Clear
3:35 AM 50.4 °F 41.9 °F 73% 29.92 in 10.0 mi WSW 3.5 mph - N/A   Clear
3:55 AM 49.3 °F 42.1 °F 76% 29.93 in 10.0 mi Calm Calm - N/A   Clear
4:19 AM 49.3 °F 42.6 °F 78% 29.92 in 10.0 mi WSW 3.5 mph - N/A   Clear
4:37 AM 50.0 °F 43.2 °F 77% 29.93 in 10.0 mi West 4.6 mph - N/A   Clear
4:56 AM 50.2 °F 44.1 °F 79% 29.93 in 10.0 mi WSW 3.5 mph - N/A   Clear
5:15 AM 50.9 °F 44.4 °F 78% 29.93 in 10.0 mi West 3.5 mph - N/A   Clear
5:35 AM 50.7 °F 44.4 °F 79% 29.94 in 10.0 mi West 5.8 mph - N/A   Clear
5:58 AM 51.4 °F 43.9 °F 75% 29.94 in 10.0 mi WSW 4.6 mph - N/A   Clear
6:16 AM 49.5 °F 43.7 °F 81% 29.94 in 10.0 mi WSW 3.5 mph - N/A   Clear
6:35 AM 51.4 °F 44.1 °F 76% 29.95 in 10.0 mi West 6.9 mph - N/A   Clear
6:36 AM 51.6 °F 44.1 °F 75% 29.95 in 10.0 mi West 5.8 mph - N/A   Clear
6:55 AM 51.6 °F 43.7 °F 74% 29.96 in 10.0 mi WSW 4.6 mph - N/A   Clear
7:19 AM 52.9 °F 44.2 °F 72% 29.97 in 10.0 mi WSW 5.8 mph - N/A   Clear
7:37 AM 52.7 °F 44.1 °F 72% 29.97 in 10.0 mi WSW 4.6 mph - N/A   Clear
7:55 AM 55.2 °F 44.2 °F 67% 29.96 in 10.0 mi WSW 4.6 mph - N/A   Clear
7:56 AM 55.2 °F 44.2 °F 67% 29.96 in 10.0 mi WSW 5.8 mph - N/A   Clear
8:15 AM 57.2 °F 44.1 °F 62% 29.96 in 10.0 mi SW 4.6 mph - N/A   Clear
8:16 AM 57.2 °F 44.1 °F 62% 29.96 in 10.0 mi SW 4.6 mph - N/A   Clear
8:35 AM 59.0 °F 43.5 °F 56% 29.96 in 10.0 mi WSW 5.8 mph - N/A   Clear
8:40 AM 59.0 °F 44.1 °F 58% 29.96 in 10.0 mi SW 4.6 mph - N/A   Clear
8:58 AM 57.6 °F 43.3 °F 59% 29.96 in 10.0 mi SW 9.2 mph - N/A   Clear
9:16 AM 59.5 °F 45.0 °F 59% 29.96 in 10.0 mi SW 6.9 mph - N/A   Clear
9:35 AM 58.1 °F 43.7 °F 59% 29.96 in 10.0 mi SW 9.2 mph - N/A   Clear
9:36 AM 57.9 °F 43.7 °F 59% 29.96 in 10.0 mi SW 9.2 mph - N/A   Clear
9:55 AM 57.9 °F 42.8 °F 57% 29.96 in 10.0 mi SW 9.2 mph - N/A   Scattered Clouds
9:56 AM 57.9 °F 43.0 °F 58% 29.96 in 10.0 mi SW 10.4 mph - N/A   Scattered Clouds
10:37 AM 58.1 °F 42.1 °F 55% 29.95 in 10.0 mi SW 12.7 mph 17.3 mph N/A   Scattered Clouds
10:55 AM 59.0 °F 41.0 °F 51% 29.94 in 10.0 mi SW 11.5 mph 19.6 mph N/A   Scattered Clouds
10:56 AM 59.0 °F 41.0 °F 51% 29.94 in 10.0 mi SW 12.7 mph 19.6 mph N/A   Scattered Clouds
11:15 AM 59.7 °F 40.8 °F 50% 29.94 in 10.0 mi SSW 12.7 mph 18.4 mph N/A   Overcast
11:16 AM 59.9 °F 40.8 °F 49% 29.95 in 10.0 mi SW 13.8 mph 18.4 mph N/A   Overcast
11:35 AM 59.9 °F 40.3 °F 48% 29.95 in 10.0 mi SSW 15.0 mph 18.4 mph N/A   Overcast
11:40 AM 60.1 °F 39.9 °F 47% 29.95 in 10.0 mi SSW 16.1 mph 20.7 mph N/A   Overcast
11:58 AM 60.1 °F 42.3 °F 52% 29.95 in 10.0 mi SW 9.2 mph 18.4 mph N/A   Drizzle
12:16 PM 58.3 °F 43.2 °F 57% 29.95 in 10.0 mi SSW 13.8 mph 23.0 mph N/A   Drizzle
12:35 PM 56.3 °F 43.7 °F 63% 29.95 in 10.0 mi SW 16.1 mph 21.9 mph N/A   Drizzle
12:55 PM 53.8 °F 45.9 °F 75% 29.95 in 10.0 mi SSW 9.2 mph 18.4 mph N/A Rain Rain
1:19 PM 53.1 °F 48.2 °F 84% 29.93 in 7.0 mi SSW 6.9 mph - 0.02 in Rain Rain
1:37 PM 53.2 °F 49.5 °F 87% 29.94 in 5.0 mi SSW 3.5 mph - 0.05 in Rain Rain
1:55 PM 53.6 °F 50.2 °F 88% 29.94 in 4.0 mi South 6.9 mph - 0.10 in Rain Heavy Rain
1:56 PM 53.6 °F 50.2 °F 88% 29.94 in 3.0 mi South 8.1 mph - 0.10 in Rain Heavy Rain
2:15 PM 53.6 °F 51.1 °F 91% 29.92 in 5.0 mi South 9.2 mph - 0.02 in Rain Rain
2:16 PM 53.6 °F 51.1 °F 91% 29.92 in 7.0 mi South 10.4 mph - 0.02 in Rain Rain
2:35 PM 53.6 °F 51.3 °F 92% 29.91 in 7.0 mi SSE 6.9 mph - 0.04 in Rain Rain
2:57 PM 54.0 °F 51.8 °F 92% 29.90 in 7.0 mi South 6.9 mph - 0.07 in Rain Light Rain
3:16 PM 54.5 °F 52.3 °F 92% 29.90 in 7.0 mi SSE 5.8 mph - 0.02 in Rain Rain
3:35 PM 54.5 °F 52.7 °F 94% 29.87 in 5.0 mi ESE 4.6 mph - 0.05 in Rain Rain
3:36 PM 54.5 °F 52.7 °F 94% 29.87 in 4.0 mi East 4.6 mph - 0.05 in Rain Rain
3:55 PM 54.5 °F 52.7 °F 94% 29.86 in 7.0 mi ESE 5.8 mph - 0.07 in Rain Rain
3:56 PM 54.5 °F 52.7 °F 94% 29.86 in 7.0 mi ESE 5.8 mph - 0.07 in Rain Rain
4:19 PM 55.0 °F 52.9 °F 92% 29.84 in 7.0 mi SE 5.8 mph - 0.01 in Rain Light Rain
4:37 PM 56.3 °F 53.4 °F 90% 29.83 in 10.0 mi ESE 4.6 mph - 0.01 in Rain Light Rain
4:55 PM 56.8 °F 53.8 °F 89% 29.82 in 10.0 mi SE 5.8 mph - 0.01 in   Overcast
5:15 PM 57.6 °F 53.8 °F 87% 29.81 in 10.0 mi SE 3.5 mph - N/A   Overcast
5:16 PM 57.6 °F 53.8 °F 87% 29.81 in 10.0 mi Calm Calm - N/A   Overcast
5:35 PM 57.4 °F 54.5 °F 90% 29.81 in 10.0 mi Calm Calm - N/A Rain Light Rain
5:40 PM 57.4 °F 54.3 °F 90% 29.81 in 10.0 mi Calm Calm - N/A Rain Light Rain
5:58 PM 59.9 °F 52.9 °F 78% 29.80 in 10.0 mi South 9.2 mph - N/A Rain Light Rain
6:16 PM 61.9 °F 50.5 °F 66% 29.79 in 10.0 mi South 12.7 mph 19.6 mph N/A   Overcast
6:35 PM 63.3 °F 49.3 °F 60% 29.79 in 10.0 mi SSW 16.1 mph 25.3 mph 0.01 in Rain Light Rain
6:55 PM 63.5 °F 48.6 °F 58% 29.78 in 10.0 mi South 19.6 mph 31.1 mph 0.01 in   Light Drizzle
6:56 PM 63.5 °F 48.6 °F 58% 29.78 in 10.0 mi SSW 17.3 mph 31.1 mph 0.01 in   Light Drizzle
7:19 PM 62.6 °F 48.9 °F 61% 29.77 in 10.0 mi SSW 16.1 mph 24.2 mph N/A   Overcast
7:37 PM 61.9 °F 49.8 °F 65% 29.78 in 10.0 mi SSW 19.6 mph 27.6 mph N/A Rain Light Rain
7:55 PM 61.9 °F 50.9 °F 67% 29.78 in 10.0 mi SSW 12.7 mph 24.2 mph N/A   Light Drizzle
8:15 PM 58.1 °F 50.9 °F 77% 29.79 in 10.0 mi SW 10.4 mph 19.6 mph N/A Rain Light Rain
8:35 PM 58.5 °F 52.0 °F 79% 29.78 in 7.0 mi SSW 10.4 mph - 0.03 in Rain Heavy Rain
8:40 PM 58.5 °F 52.3 °F 80% 29.77 in 7.0 mi SSW 13.8 mph - 0.04 in Rain Rain
8:58 PM 59.0 °F 52.9 °F 80% 29.77 in 10.0 mi SSW 12.7 mph 18.4 mph 0.06 in Rain Light Rain
9:16 PM 60.1 °F 53.6 °F 79% 29.76 in 10.0 mi South 5.8 mph - 0.01 in Rain Rain
9:35 PM 59.0 °F 54.5 °F 85% 29.76 in 10.0 mi South 6.9 mph - 0.03 in Rain Rain
9:55 PM 60.1 °F 53.6 °F 79% 29.76 in 10.0 mi South 8.1 mph - 0.03 in Rain Light Rain
9:56 PM 60.1 °F 53.6 °F 79% 29.76 in 10.0 mi South 8.1 mph - 0.03 in Rain Light Rain
10:19 PM 60.1 °F 54.0 °F 80% 29.76 in 10.0 mi South 5.8 mph - 0.01 in Rain Light Rain
10:37 PM 59.9 °F 53.8 °F 80% 29.76 in 10.0 mi South 6.9 mph - 0.01 in   Overcast